{"data":{"norad_id":44772,"intl_designator":"2019-074BM","name":"STARLINK-1068","alt_names":[],"object_type":"PAYLOAD","status":"ACTIVE","operator":null,"country":"US","launch_date":"2019-11-11","launch_site_code":"AFETR","launch_vehicle":null,"mission":null,"orbit_class":"UNKNOWN","rcs_meters":null,"size_class":null,"mass_kg":null,"dimensions":null,"purposes":["comms"],"wikipedia_slug":null,"has_3d_model":false,"image_url":null,"decayed_at":null,"tle_current":{"epoch":"2026-05-25T04:46:15.271104Z","epoch_age_seconds":54377,"freshness":"FRESH","line1":"1 44772U 19074BM  26145.19878786  .00063559  00000+0  45551-3 0  9997","line2":"2 44772  53.0422 162.2708 0002455  63.1131 297.0137 15.73108831360857","mean_motion":15.73108831,"eccentricity":0.0002455,"inclination_deg":53.0422,"raan_deg":162.2708,"arg_perigee_deg":63.1131,"mean_anomaly_deg":297.0137,"bstar":0.00045551,"rev_number":36085,"period_min":91.538485553133,"perigee_km":348.36635102296,"apogee_km":351.66987518349,"semimajor_km":6728.1551131032,"source":"CELESTRAK","updated_at":"2026-05-25T13:38:16.375109Z"}}}